2019-087D (44841 NORAD) Tracking and Keplerian Element Data

This shows tracking and keplerian element data for the satellite.

Feedback or suggestion? Click here.




ElementValue
Catalog44841
Name2019-087D
Epoch Orbit1790
Epoch Day94.08185593
Epoch Year2020
RAAN251.349
Inclination97.3851
Eccentricity0.0009991
Argument of Perigee202.7936
Mean Anonmoly264.3839
Mean Motion15.2191547
Decay Rate2.703E-05
L11 44841U 19087D 20094.08185593 .00002703 00000-0 12161-3 0 9996
L22 44841 97.3851 251.3490 0009991 202.7936 264.3839 15.21915470 17904

Live tracking and technical data element details for 2019-087D (NORAD 44841). 2019-087D can be tracked NOW for your location showing map with azimuth and elevation plus other details from your city location.

Track the satellite on the map from your city or location and see movement details for azimuth, elevation, latitude, longitude, range, height, and movement on the map or in text.







IsCatalogInMostPopularTable: catalog: 44841, numindb: 36
Update: records affected: 1



GetName: 44841 2019-087D

Hit Count: updated at: Sun, 05 Apr 2020 18:21:30 GMT